This is the latest recevied weather packets stored in our database for station/object KF0EZB. If no packets are shown the sender has not sent any weather packets the latest 10 day(s).
| Time | Temp. | Humidity | Pressure | Rain* | Wind** | Luminosity | Snow |
|---|---|---|---|---|---|---|---|
| 1777768470 | 21.67° C | 29% | 1016.7 hPa | 0 mm | - | 31 W/m² | - |
| 1777768167 | 21.67° C | 29% | 1016.7 hPa | 0 mm | - | 43 W/m² | - |
| 1777767864 | 22.22° C | 28% | 1016.7 hPa | 0 mm | - | 72 W/m² | - |
| 1777767560 | 22.22° C | 27% | 1016.8 hPa | 0 mm | - | 80 W/m² | - |
| 1777767257 | 22.22° C | 27% | 1016.6 hPa | 0 mm | - | 98 W/m² | - |
| 1777766955 | 22.22° C | 27% | 1016.9 hPa | 0 mm | - | 110 W/m² | - |
| 1777766651 | 22.78° C | 27% | 1017.3 hPa | 0 mm | - | 121 W/m² | - |
| 1777766349 | 21.67° C | 28% | 1017.1 hPa | 0 mm | - | 128 W/m² | - |
| 1777766045 | 22.22° C | 27% | 1017.1 hPa | 0 mm | - | 138 W/m² | - |
| 1777765743 | 22.78° C | 27% | 1017.4 hPa | 0 mm | - | 167 W/m² | - |
| 1777765439 | 22.78° C | 27% | 1017.2 hPa | 0 mm | - | 180 W/m² | - |
| 1777765136 | 22.78° C | 27% | 1017.2 hPa | 0 mm | - | 203 W/m² | - |
| 1777764832 | 22.78° C | 27% | 1017.4 hPa | 0 mm | - | 196 W/m² | - |
| 1777764529 | 22.78° C | 26% | 1017.6 hPa | 0 mm | - | 207 W/m² | - |
| 1777764225 | 22.78° C | 27% | 1017.4 hPa | 0 mm | - | 219 W/m² | - |
| 1777763922 | 22.78° C | 26% | 1017.5 hPa | 0 mm | - | 246 W/m² | - |
| 1777763620 | 22.78° C | 27% | 1017.7 hPa | 0 mm | - | 262 W/m² | - |
| 1777763318 | 22.78° C | 27% | 1017.5 hPa | 0 mm | - | 274 W/m² | - |
| 1777763016 | 22.78° C | 26% | 1017.5 hPa | 0 mm | - | 265 W/m² | - |
| 1777762712 | 22.78° C | 26% | 1017.6 hPa | 0 mm | - | 261 W/m² | - |
| 1777762409 | 22.78° C | 26% | 1017.5 hPa | 0 mm | - | 279 W/m² | - |
| 1777762106 | 22.78° C | 26% | 1017.5 hPa | 0 mm | - | 307 W/m² | - |
| 1777761802 | 22.78° C | 26% | 1017.7 hPa | 0 mm | - | 353 W/m² | - |
| 1777761500 | 22.78° C | 26% | 1017.6 hPa | 0 mm | - | 352 W/m² | - |
| 1777761198 | 23.33° C | 26% | 1017.6 hPa | 0 mm | - | 354 W/m² | - |
* Rain latest hour (hover to see other rain measurements)
** Current wind speed in m/s (hover to see current wind gust speed)